EW0349 Weather Reports


time (UTC)temp
C
wind
direction
speed
KPH
gust
KPH
rain 1hr
cm
rain 24hr
cm
rain mn
cm
humidity
%
barometer
mb
20260504081503 13 191 0.0 3.2 0.00 0.00 0.00 71 1009.4
20260504050019 20 244 0.0 3.2 0.00 0.00 0.00 54 1007.2
20260504044515 21 239 0.0 1.6 0.00 0.00 0.00 50 1007.1
20260504043012 22 260 0.0 4.8 0.00 0.00 0.00 48 1006.9
20260504041606 23 259 1.6 4.8 0.00 0.00 0.00 45 1006.8
20260504040006 23 271 0.0 4.8 0.00 0.00 0.00 43 1006.6
20260504034559 25 293 0.0 6.4 0.00 0.00 0.00 43 1006.5
20260504033113 25 270 0.0 4.8 0.00 0.00 0.00 44 1006.3
20260504031600 26 284 0.0 3.2 0.00 0.00 0.00 43 1006.3
20260504030051 26 267 0.0 4.8 0.00 0.00 0.00 42 1006.3
20260504024556 26 255 1.6 6.4 0.00 0.00 0.00 41 1006.2
20260504023045 28 265 0.0 3.2 0.00 0.00 0.00 34 1006.1
20260504021547 29 261 0.0 3.2 0.00 0.00 0.00 31 1006.1
20260504020035 30 258 0.0 1.6 0.00 0.00 0.00 31 1006.2
20260504014532 30 252 0.0 4.8 0.00 0.00 0.00 30 1006.2
20260504013031 30 306 0.0 3.2 0.00 0.00 0.00 32 1006.3
20260503234558 31 305 0.0 3.2 0.00 0.00 0.00 30 1006.7
20260503233055 31 20 0.0 6.4 0.00 0.00 0.00 30 1006.9
20260503231554 31 22 0.0 4.8 0.00 0.00 0.00 33 1007.1
20260503230050 30 304 1.6 9.7 0.00 0.00 0.00 29 1007.4
20260503224541 30 21 1.6 4.8 0.00 0.00 0.00 36 1007.7
20260503223037 30 9 3.2 8.0 0.00 0.00 0.00 33 1007.9
20260503221533 30 331 1.6 6.4 0.00 0.00 0.00 39 1008.2
20260503220033 30 13 3.2 8.0 0.00 0.00 0.00 37 1008.4
20260503214522 28 34 1.6 8.0 0.00 0.00 0.00 41 1008.5
20260503213021 28 99 1.6 9.7 0.00 0.00 0.00 42 1008.7
20260503211515 27 61 1.6 11.3 0.00 0.00 0.00 46 1008.9
20260503210009 27 88 1.6 6.4 0.00 0.00 0.00 44 1009.0
20260503204505 27 56 1.6 6.4 0.00 0.00 0.00 47 1009.2
20260503203106 26 22 1.6 8.0 0.00 0.00 0.00 50 1009.4
20260503201557 26 84 1.6 8.0 0.00 0.00 0.00 51 1009.7
20260503200052 26 42 1.6 4.8 0.00 0.00 0.00 50 1009.8
20260503194550 25 277 0.0 6.4 0.00 0.00 0.00 53 1010.1
20260503193046 25 79 1.6 4.8 0.00 0.00 0.00 53 1010.2
20260503191540 23 65 1.6 4.8 0.00 0.00 0.00 56 1010.4
20260503190044 23 92 1.6 8.0 0.00 0.00 0.00 57 1010.5
20260503184530 22 28 1.6 6.4 0.00 0.00 0.00 58 1010.7
20260503183027 22 47 1.6 6.4 0.00 0.00 0.00 58 1010.9
20260503181522 21 61 1.6 8.0 0.00 0.00 0.00 57 1011.0
20260503180017 21 53 0.0 6.4 0.00 0.00 0.00 58 1011.1
20260503174512 20 69 1.6 6.4 0.00 0.00 0.00 61 1011.2
20260503173016 20 64 1.6 11.3 0.00 0.00 0.00 61 1011.2
20260503171503 19 17 4.8 9.7 0.00 0.00 0.00 60 1011.3
20260503100114 10 263 0.0 1.6 0.00 0.00 0.00 100 1011.7